Index of /hbasees/thermo/imgheat

[ICO]NameLast modifiedSizeDescription

[DIR]Parent Directory  -  
[IMG]heatranex.png25-Apr-2017 14:07 150K 
[IMG]Vostokdata.jpg09-Nov-2016 10:30 129K 
[IMG]suratm.jpg09-Nov-2016 10:30 119K 
[IMG]wphas3.png22-May-2017 21:14 106K 
[IMG]claus.png08-Feb-2017 21:58 105K 
[IMG]IceCores1.jpg09-Nov-2016 10:30 103K 
[IMG]hetrancon.png25-Apr-2017 14:07 103K 
[IMG]nitoxyphase.png21-Feb-2017 21:24 95K 
[IMG]refrigarr.png07-Nov-2017 11:46 91K 
[IMG]cr.jpg09-Nov-2016 10:30 86K 
[IMG]isoth.png08-Feb-2017 21:58 85K 
[IMG]emanuelgraph.jpg09-Nov-2016 10:30 78K 
[IMG]trise20.psd09-Nov-2016 10:30 67K 
[IMG]Adiab2.png08-Feb-2017 21:58 66K 
[IMG]cvproc.png08-Feb-2017 21:58 66K 
[IMG]Adiab.png08-Feb-2017 21:58 64K 
[IMG]intex.png21-Feb-2017 21:24 64K 
[IMG]temperchg4.gif09-Nov-2016 10:30 63K 
[IMG]cvec.png25-Apr-2017 14:07 63K 
[IMG]pha1.png22-May-2017 21:14 60K 
[IMG]heatflow.png07-Nov-2017 11:46 60K 
[IMG]solcyc.gif09-Nov-2016 10:30 60K 
[IMG]bodycool3.png22-May-2017 21:14 59K 
[IMG]climforc.gif09-Nov-2016 10:30 57K 
[IMG]wphas4.png22-May-2017 21:14 56K 
[IMG]convectpot.png25-Apr-2017 14:07 55K 
[IMG]isoth2.png08-Feb-2017 21:58 51K 
[IMG]wphas2.png22-May-2017 21:14 51K 
[IMG]carnot2.png08-Feb-2017 21:58 50K 
[IMG]Heatengproc.png08-Feb-2017 21:58 49K 
[IMG]adiab3.gif09-Nov-2016 10:30 49K 
[IMG]carnot.png08-Feb-2017 21:58 47K 
[IMG]CPprocess.png08-Feb-2017 21:58 46K 
[IMG]eebal.gif09-Nov-2016 10:30 45K 
[IMG]solactm.gif09-Nov-2016 10:30 43K 
[IMG]inteng1.png21-Feb-2017 21:24 43K 
[IMG]bodycool2.png22-May-2017 21:14 40K 
[IMG]co2maunaloa.gif09-Nov-2016 10:30 40K 
[IMG]heatloss.gif09-Nov-2016 10:30 40K 
[IMG]wphas5.png22-May-2017 21:14 39K 
[IMG]linex.gif09-Nov-2016 10:30 38K 
[IMG]isoth3.png08-Feb-2017 21:58 36K 
[IMG]co2temp.gif09-Nov-2016 10:30 35K 
[IMG]wphas7.png22-May-2017 21:14 35K 
[IMG]co2lag.gif09-Nov-2016 10:30 32K 
[IMG]mceng.png21-Feb-2017 21:24 31K 
[IMG]texpancon.gif09-Nov-2016 10:30 30K 
[IMG]Adiab4.png08-Feb-2017 21:58 30K 
[IMG]temsol2.gif09-Nov-2016 10:30 29K 
[IMG]searise.gif09-Nov-2016 10:30 29K 
[IMG]tempshort.gif09-Nov-2016 10:30 28K 
[IMG]globtemp.gif09-Nov-2016 10:30 28K 
[IMG]temsol.gif09-Nov-2016 10:30 28K 
[IMG]ghgsk.gif09-Nov-2016 10:30 27K 
[IMG]pvtexp.gif09-Nov-2016 10:30 26K 
[IMG]bodycool4.png22-May-2017 21:14 26K 
[IMG]wphas3.gif09-Nov-2016 10:30 25K 
[IMG]wphas6.png22-May-2017 21:14 23K 
[IMG]thexpan.gif09-Nov-2016 10:30 23K 
[IMG]ghginc.gif09-Nov-2016 10:30 22K 
[IMG]dewarwalls.gif09-Nov-2016 10:30 22K 
[IMG]pvtconr.gif09-Nov-2016 10:30 22K 
[IMG]hrad2.png21-Feb-2017 21:24 22K 
[IMG]temper80.gif09-Nov-2016 10:30 21K 
[IMG]fuelcell.gif09-Nov-2016 10:30 21K 
[IMG]cosraysun.gif09-Nov-2016 10:30 21K 
[IMG]tpot2.gif09-Nov-2016 10:30 21K 
[IMG]claus.gif09-Nov-2016 10:30 21K 
[IMG]heatranex.gif09-Nov-2016 10:30 20K 
[IMG]radforce.gif09-Nov-2016 10:30 19K 
[IMG]hpump4.gif09-Nov-2016 10:30 19K 
[IMG]refrigarr.gif09-Nov-2016 10:30 19K 
[IMG]heatengcon.gif09-Nov-2016 10:30 18K 
[IMG]molbas.gif09-Nov-2016 10:30 18K 
[IMG]refrig.gif09-Nov-2016 10:30 17K 
[IMG]nitoxyphase.gif09-Nov-2016 10:30 17K 
[IMG]seclawcon.gif09-Nov-2016 10:30 17K 
[IMG]pvdiagcon.gif09-Nov-2016 10:30 16K 
[IMG]intex.gif09-Nov-2016 10:30 16K 
[IMG]Theridcon.gif09-Nov-2016 10:30 16K 
[IMG]heawor.gif09-Nov-2016 10:30 16K 
[IMG]intenergycon.gif09-Nov-2016 10:30 16K 
[IMG]htcd1.png20-Apr-2017 10:14 15K 
[IMG]trise20.gif09-Nov-2016 10:30 15K 
[IMG]diescycd.gif09-Nov-2016 10:30 15K 
[IMG]houseenergy.gif09-Nov-2016 10:30 15K 
[IMG]tempercon.gif09-Nov-2016 10:30 15K 
[IMG]stef1.png15-Feb-2017 13:14 14K 
[IMG]cvec.gif09-Nov-2016 10:30 13K 
[IMG]phasecon.gif09-Nov-2016 10:30 13K 
[IMG]isoth.gif09-Nov-2016 10:30 13K 
[IMG]watfal.gif09-Nov-2016 10:30 13K 
[IMG]electrol.gif09-Nov-2016 10:30 13K 
[IMG]balloonidgas.png21-Feb-2017 21:24 13K 
[IMG]tempgen.gif09-Nov-2016 10:30 13K 
[IMG]Adiab2.gif09-Nov-2016 10:30 13K 
[IMG]carnotcon.gif09-Nov-2016 10:30 13K 
[IMG]silisph.gif09-Nov-2016 10:30 12K 
[IMG]eng4.gif09-Nov-2016 10:30 12K 
[IMG]heatcon.gif09-Nov-2016 10:30 12K 
[IMG]pha1.gif09-Nov-2016 10:30 12K 
[IMG]heatflow.gif09-Nov-2016 10:30 11K 
[IMG]eng3.gif09-Nov-2016 10:30 11K 
[IMG]grhse2.gif09-Nov-2016 10:30 11K 
[IMG]heaeng.gif09-Nov-2016 10:30 11K 
[IMG]isoth2.gif09-Nov-2016 10:30 11K 
[IMG]wphas2.gif09-Nov-2016 10:30 11K 
[IMG]ref2.gif09-Nov-2016 10:30 11K 
[IMG]heatloss3.gif09-Nov-2016 10:30 11K 
[IMG]hteng2.gif09-Nov-2016 10:30 11K 
[IMG]eng2.gif09-Nov-2016 10:30 11K 
[IMG]bodycool3.gif09-Nov-2016 10:30 10K 
[IMG]carnot2.gif09-Nov-2016 10:30 10K 
[IMG]tempgen2.gif09-Nov-2016 10:30 10K 
[IMG]wphas4.gif09-Nov-2016 10:30 10K 
[IMG]diescyce.gif09-Nov-2016 10:30 10K 
[IMG]templine.gif09-Nov-2016 10:30 10K 
[IMG]grhse.gif09-Nov-2016 10:30 10K 
[IMG]eng5.gif09-Nov-2016 10:30 10K 
[IMG]diescyl.gif09-Nov-2016 10:30 10K 
[IMG]hvap.gif09-Nov-2016 10:30 9.7K 
[IMG]hpump.gif09-Nov-2016 10:30 9.6K 
[IMG]inteng1.gif09-Nov-2016 10:30 9.4K 
[IMG]carnot.gif09-Nov-2016 10:30 9.4K 
[IMG]cvproc.gif09-Nov-2016 10:30 9.4K 
[IMG]Adiab.gif09-Nov-2016 10:30 9.3K 
[IMG]firlaw2.gif09-Nov-2016 10:30 9.3K 
[IMG]temper1.gif09-Nov-2016 10:30 9.3K 
[IMG]Kelvincool.gif09-Nov-2016 10:30 9.1K 
[IMG]mceng.gif09-Nov-2016 10:30 9.0K 
[IMG]linex2.gif09-Nov-2016 10:30 9.0K 
[IMG]eng1.gif09-Nov-2016 10:30 8.9K 
[IMG]bodycool2.gif09-Nov-2016 10:30 8.7K 
[IMG]heatloss2.gif09-Nov-2016 10:30 8.6K 
[IMG]heatloss5.gif09-Nov-2016 10:30 8.5K 
[IMG]CPprocess.gif09-Nov-2016 10:30 8.4K 
[IMG]vacflask2.gif09-Nov-2016 10:30 8.3K 
[IMG]heatloss4.gif09-Nov-2016 10:30 8.2K 
[IMG]Heatengproc.gif09-Nov-2016 10:30 8.0K 
[IMG]diescyc.gif09-Nov-2016 10:30 8.0K 
[IMG]Gibb.gif09-Nov-2016 10:30 8.0K 
[IMG]convectpot.GIF09-Nov-2016 10:30 7.9K 
[IMG]glassteel.gif09-Nov-2016 10:30 7.8K 
[IMG]thequilcon.gif09-Nov-2016 10:30 7.7K 
[IMG]snosea.gif09-Nov-2016 10:30 7.7K 
[IMG]pdv1.gif09-Nov-2016 10:30 7.5K 
[IMG]bimetal.gif09-Nov-2016 10:30 7.3K 
[IMG]heaeng2.gif09-Nov-2016 10:30 7.3K 
[IMG]pvtexpt.gif09-Nov-2016 10:30 7.0K 
[IMG]stef3.png15-Feb-2017 13:14 6.6K 
[IMG]heatloss7.gif09-Nov-2016 10:30 6.6K 
[IMG]heatrancon.gif09-Nov-2016 10:30 6.5K 
[IMG]texp10.gif09-Nov-2016 10:30 6.4K 
[IMG]hcon1.png20-Apr-2017 10:14 6.4K 
[IMG]hrad2.gif09-Nov-2016 10:30 6.4K 
[IMG]hcon4.gif09-Nov-2016 10:30 6.3K 
[IMG]workorder.gif09-Nov-2016 10:30 6.2K 
[IMG]heatloss6.gif09-Nov-2016 10:30 6.1K 
[IMG]isoth3.gif09-Nov-2016 10:30 5.9K 
[IMG]Dulong.gif09-Nov-2016 10:30 5.8K 
[IMG]radc3.png15-Feb-2017 13:14 5.8K 
[IMG]wphas7.gif09-Nov-2016 10:30 5.7K 
[IMG]hpump3.gif09-Nov-2016 10:30 5.6K 
[IMG]thexpan2.gif09-Nov-2016 10:30 5.6K 
[IMG]Adiab4.gif09-Nov-2016 10:30 5.5K 
[IMG]grgas.gif09-Nov-2016 10:30 5.3K 
[IMG]vacflask.gif09-Nov-2016 10:30 5.3K 
[IMG]edsh10.gif09-Nov-2016 10:30 5.2K 
[IMG]Helm.gif09-Nov-2016 10:30 5.2K 
[IMG]hcon2.gif09-Nov-2016 10:30 5.1K 
[IMG]stef2.png15-Feb-2017 13:14 5.1K 
[IMG]heaengcyc.gif09-Nov-2016 10:30 5.1K 
[IMG]pvtgast.gif09-Nov-2016 10:30 5.0K 
[IMG]vexpan.gif09-Nov-2016 10:30 4.9K 
[IMG]hfus1.gif09-Nov-2016 10:30 4.8K 
[IMG]heat2.gif09-Nov-2016 10:30 4.6K 
[IMG]co2.gif09-Nov-2016 10:30 4.5K 
[IMG]hcon3.gif09-Nov-2016 10:30 4.4K 
[IMG]snolos.gif09-Nov-2016 10:30 4.4K 
[IMG]shta.gif09-Nov-2016 10:30 4.4K 
[IMG]syswk2.gif09-Nov-2016 10:30 4.3K 
[IMG]watice.gif09-Nov-2016 10:30 4.2K 
[IMG]tpot.gif09-Nov-2016 10:30 4.2K 
[IMG]syswk.gif09-Nov-2016 10:30 4.1K 
[IMG]aexpan.gif09-Nov-2016 10:30 4.1K 
[IMG]texp1.gif09-Nov-2016 10:30 4.0K 
[IMG]wphas.gif09-Nov-2016 10:30 4.0K 
[IMG]hcon5.gif09-Nov-2016 10:30 4.0K 
[IMG]bodc.gif09-Nov-2016 10:30 3.9K 
[IMG]hfrez2.gif09-Nov-2016 10:30 3.9K 
[IMG]hq11.gif09-Nov-2016 10:30 3.9K 
[IMG]cool1.gif09-Nov-2016 10:30 3.8K 
[IMG]heat1.gif09-Nov-2016 10:30 3.8K 
[IMG]carn.gif09-Nov-2016 10:30 3.8K 
[IMG]Dulong2.gif09-Nov-2016 10:30 3.8K 
[IMG]bodycool4.gif09-Nov-2016 10:30 3.6K 
[IMG]entig.gif09-Nov-2016 10:30 3.4K 
[IMG]cperf2.gif09-Nov-2016 10:30 3.4K 
[IMG]stf6.gif09-Nov-2016 10:30 3.4K 
[IMG]stef1.gif09-Nov-2016 10:30 3.3K 
[IMG]cool5.gif09-Nov-2016 10:30 3.3K 
[IMG]hcon9.gif09-Nov-2016 10:30 3.2K 
[IMG]cool8.gif09-Nov-2016 10:30 3.2K 
[IMG]hcon7.gif09-Nov-2016 10:30 3.2K 
[IMG]hq10.gif09-Nov-2016 10:30 3.1K 
[IMG]Untitled.gif09-Nov-2016 10:30 3.1K 
[IMG]hfrez.gif09-Nov-2016 10:30 3.1K 
[IMG]htcd1.gif09-Nov-2016 10:30 3.0K 
[IMG]texp2.gif09-Nov-2016 10:30 3.0K 
[IMG]entig2.gif09-Nov-2016 10:30 3.0K 
[IMG]edsh5.gif09-Nov-2016 10:30 3.0K 
[IMG]theq2.gif09-Nov-2016 10:30 3.0K 
[IMG]thebot.gif09-Nov-2016 10:30 2.9K 
[IMG]die1.gif09-Nov-2016 10:30 2.9K 
[IMG]edsh3.gif09-Nov-2016 10:30 2.9K 
[IMG]radc1.gif09-Nov-2016 10:30 2.7K 
[IMG]entcar3.gif09-Nov-2016 10:30 2.7K 
[IMG]sht.gif09-Nov-2016 10:30 2.7K 
[IMG]theq1.gif09-Nov-2016 10:30 2.6K 
[IMG]lighting.gif09-Nov-2016 10:30 2.6K 
[IMG]ent.gif09-Nov-2016 10:30 2.6K 
[IMG]otto5.gif09-Nov-2016 10:30 2.5K 
[IMG]heatloss8.gif09-Nov-2016 10:30 2.5K 
[IMG]stf4.gif09-Nov-2016 10:30 2.4K 
[IMG]firlaw.gif09-Nov-2016 10:30 2.4K 
[IMG]vacfla1.gif09-Nov-2016 10:30 2.4K 
[IMG]cool3.gif09-Nov-2016 10:30 2.4K 
[IMG]stf2.gif09-Nov-2016 10:30 2.4K 
[IMG]die8.gif09-Nov-2016 10:30 2.3K 
[IMG]lexpan.gif09-Nov-2016 10:30 2.3K 
[IMG]otto4.gif09-Nov-2016 10:30 2.3K 
[IMG]temdef.gif09-Nov-2016 10:30 2.3K 
[IMG]edsh6.gif09-Nov-2016 10:30 2.3K 
[IMG]hcon10.gif09-Nov-2016 10:30 2.3K 
[IMG]htra1.gif09-Nov-2016 10:30 2.3K 
[IMG]watheater.gif09-Nov-2016 10:30 2.3K 
[IMG]pdefeq.gif09-Nov-2016 10:30 2.2K 
[IMG]cool6.gif09-Nov-2016 10:30 2.2K 
[IMG]stf1.gif09-Nov-2016 10:30 2.2K 
[IMG]otto1.gif09-Nov-2016 10:30 2.2K 
[IMG]wphas5.gif09-Nov-2016 10:30 2.2K 
[IMG]die2.gif09-Nov-2016 10:30 2.2K 
[IMG]cool2.gif09-Nov-2016 10:30 2.1K 
[IMG]stf3.gif09-Nov-2016 10:30 2.1K 
[IMG]gamcc.gif09-Nov-2016 10:30 2.1K 
[IMG]otto6.gif09-Nov-2016 10:30 2.1K 
[IMG]otto3.gif09-Nov-2016 10:30 2.1K 
[IMG]otto2.gif09-Nov-2016 10:30 2.0K 
[IMG]edsh2.gif09-Nov-2016 10:30 2.0K 
[IMG]edsh9.gif09-Nov-2016 10:30 2.0K 
[IMG]texp9.gif09-Nov-2016 10:30 2.0K 
[IMG]cperf.gif09-Nov-2016 10:30 2.0K 
[IMG]die5.gif09-Nov-2016 10:30 2.0K 
[IMG]ccof4.gif09-Nov-2016 10:30 1.9K 
[IMG]edsh7.gif09-Nov-2016 10:30 1.9K 
[IMG]wcp.gif09-Nov-2016 10:30 1.9K 
[IMG]die7.gif09-Nov-2016 10:30 1.9K 
[IMG]die6.gif09-Nov-2016 10:30 1.9K 
[IMG]hq12.gif09-Nov-2016 10:30 1.9K 
[IMG]hcon1.gif09-Nov-2016 10:30 1.9K 
[IMG]radc3.gif09-Nov-2016 10:30 1.9K 
[IMG]stf5.gif09-Nov-2016 10:30 1.9K 
[IMG]die4.gif09-Nov-2016 10:30 1.8K 
[IMG]stef3.gif09-Nov-2016 10:30 1.8K 
[IMG]entcar6.gif09-Nov-2016 10:30 1.8K 
[IMG]die3.gif09-Nov-2016 10:30 1.8K 
[IMG]spht1.gif09-Nov-2016 10:30 1.8K 
[IMG]hq5.gif09-Nov-2016 10:30 1.8K 
[IMG]qcv.gif09-Nov-2016 10:30 1.7K 
[IMG]cool4.gif09-Nov-2016 10:30 1.7K 
[IMG]wphase7.gif09-Nov-2016 10:30 1.7K 
[IMG]entcar1.gif09-Nov-2016 10:30 1.7K 
[IMG]brad3.gif09-Nov-2016 10:30 1.7K 
[IMG]wiso.gif09-Nov-2016 10:30 1.7K 
[IMG]wadi.gif09-Nov-2016 10:30 1.7K 
[IMG]tentropy.gif09-Nov-2016 10:30 1.7K 
[IMG]cperf3.gif09-Nov-2016 10:30 1.7K 
[IMG]texp5.gif09-Nov-2016 10:30 1.7K 
[IMG]hq13.gif09-Nov-2016 10:30 1.6K 
[IMG]ccof2.gif09-Nov-2016 10:30 1.6K 
[IMG]pdef.gif09-Nov-2016 10:30 1.6K 
[IMG]heng1.gif09-Nov-2016 10:30 1.6K 
[IMG]hq9.gif09-Nov-2016 10:30 1.5K 
[IMG]wcpp.gif09-Nov-2016 10:30 1.5K 
[IMG]tem2.gif09-Nov-2016 10:30 1.5K 
[IMG]calor1.gif09-Nov-2016 10:30 1.5K 
[IMG]hcon6.gif09-Nov-2016 10:30 1.5K 
[IMG]hcon8.gif09-Nov-2016 10:30 1.5K 
[IMG]edsh1.gif09-Nov-2016 10:30 1.5K 
[IMG]edsh4.gif09-Nov-2016 10:30 1.5K 
[IMG]bcon2.gif09-Nov-2016 10:30 1.4K 
[IMG]wphas6.gif09-Nov-2016 10:30 1.4K 
[IMG]hq2.gif09-Nov-2016 10:30 1.4K 
[IMG]entcar8.gif09-Nov-2016 10:30 1.4K 
[IMG]entcar4.gif09-Nov-2016 10:30 1.4K 
[IMG]stef2.gif09-Nov-2016 10:30 1.4K 
[IMG]sysw3.gif09-Nov-2016 10:30 1.4K 
[IMG]entcar5.gif09-Nov-2016 10:30 1.4K 
[IMG]cool7.gif09-Nov-2016 10:30 1.4K 
[IMG]ccof7.gif09-Nov-2016 10:30 1.3K 
[IMG]entcar2.gif09-Nov-2016 10:30 1.3K 
[IMG]hq8.gif09-Nov-2016 10:30 1.3K 
[IMG]entcar7.gif09-Nov-2016 10:30 1.3K 
[IMG]hpump2.gif09-Nov-2016 10:30 1.3K 
[IMG]brad2.gif09-Nov-2016 10:30 1.3K 
[IMG]ccof6.gif09-Nov-2016 10:30 1.3K 
[IMG]tidea.gif09-Nov-2016 10:30 1.3K 
[IMG]qcp.gif09-Nov-2016 10:30 1.3K 
[IMG]ccof5.gif09-Nov-2016 10:30 1.3K 
[IMG]ccof3.gif09-Nov-2016 10:30 1.3K 
[IMG]edsh8.gif09-Nov-2016 10:30 1.3K 
[IMG]idep.gif09-Nov-2016 10:30 1.3K 
[IMG]radc2.gif09-Nov-2016 10:30 1.2K 
[IMG]pdv.gif09-Nov-2016 10:30 1.2K 
[IMG]gam.gif09-Nov-2016 10:30 1.2K 
[IMG]coff.gif09-Nov-2016 10:30 1.2K 
[IMG]rcpcv.gif09-Nov-2016 10:30 1.2K 
[IMG]sysw2.gif09-Nov-2016 10:30 1.2K 
[IMG]hfus2.gif09-Nov-2016 10:30 1.2K 
[IMG]ccof.gif09-Nov-2016 10:30 1.2K 
[IMG]pvk.gif09-Nov-2016 10:30 1.1K 
[IMG]tcold.gif09-Nov-2016 10:30 1.1K 
[IMG]thot.gif09-Nov-2016 10:30 1.1K 
[IMG]bcon1.gif09-Nov-2016 10:30 1.1K 
[IMG]tem1.gif09-Nov-2016 10:30 1.1K 
[IMG]chot2.gif09-Nov-2016 10:30 1.1K 
[IMG]chot.gif09-Nov-2016 10:30 1.1K 
[IMG]hq3.gif09-Nov-2016 10:30 1.0K 
[IMG]A.gif09-Nov-2016 10:30 1.0K 
[IMG]swea2.gif09-Nov-2016 10:30 1.0K 
[IMG]wall2.gif09-Nov-2016 10:30 1.0K 
[IMG]Q.gif09-Nov-2016 10:30 1.0K 
[IMG]ques.gif09-Nov-2016 10:30 1.0K 
[IMG]cp.gif09-Nov-2016 10:30 1.0K 
[IMG]cv.gif09-Nov-2016 10:30 1.0K 
[IMG]pf.gif09-Nov-2016 10:30 1.0K 
[IMG]d.gif09-Nov-2016 10:30 1.0K 
[IMG]vf.gif09-Nov-2016 10:30 1.0K 
[IMG]tcb.gif09-Nov-2016 10:30 1.0K 
[IMG]vi.gif09-Nov-2016 10:30 1.0K 
[IMG]tf.gif09-Nov-2016 10:30 970  
[IMG]ttemp.gif09-Nov-2016 10:30 967  
[IMG]ti.gif09-Nov-2016 10:30 966  
[IMG]pi.gif09-Nov-2016 10:30 966  
[IMG]k.gif09-Nov-2016 10:30 965  
[IMG]C.gif09-Nov-2016 10:30 961  
[IMG]thb.gif09-Nov-2016 10:30 955  
[IMG]Kel.gif09-Nov-2016 10:30 937  
[IMG]ttime.gif09-Nov-2016 10:30 931  
[IMG]chot3.gif09-Nov-2016 10:30 913  
[IMG]eer.gif09-Nov-2016 10:30 903  
[IMG]hq7.gif09-Nov-2016 10:30 888  
[IMG]calor2.gif09-Nov-2016 10:30 862  
[IMG]pvtflask.gif09-Nov-2016 10:30 824  
[IMG]balloonidgas.gif09-Nov-2016 10:30 824  
[IMG]eer2.gif09-Nov-2016 10:30 817  
[IMG]hq4.gif09-Nov-2016 10:30 816  
[IMG]hq6.gif09-Nov-2016 10:30 656  
[IMG]hq1.gif09-Nov-2016 10:30 653  
[IMG]texp7.gif09-Nov-2016 10:30 641  
[IMG]vcool.gif09-Nov-2016 10:30 596  
[IMG]enth2.gif09-Nov-2016 10:30 576  
[IMG]heng2.gif09-Nov-2016 10:30 559  
[IMG]ccof8.gif09-Nov-2016 10:30 559  
[IMG]texp4.gif09-Nov-2016 10:30 558  
[IMG]htcd2.gif09-Nov-2016 10:30 555  
[IMG]cice2.gif09-Nov-2016 10:30 488  
[IMG]brad1.gif09-Nov-2016 10:30 414  
[IMG]texp8.gif09-Nov-2016 10:30 406  
[IMG]wall1.gif09-Nov-2016 10:30 402  
[IMG]hrad1.gif09-Nov-2016 10:30 397  
[IMG]texp6.gif09-Nov-2016 10:30 382  
[IMG]cice.gif09-Nov-2016 10:30 376  
[IMG]tf2.gif09-Nov-2016 10:30 359  
[IMG]texp3.gif09-Nov-2016 10:30 350  
[IMG]calor3.gif09-Nov-2016 10:30 323  
[IMG]pdv2.gif09-Nov-2016 10:30 320  
[IMG]wcp2.gif09-Nov-2016 10:30 318  
[IMG]swea1.gif09-Nov-2016 10:30 307  
[IMG]pdv3.gif09-Nov-2016 10:30 303  
[IMG]wcp3.gif09-Nov-2016 10:30 298  
[IMG]enth1.gif09-Nov-2016 10:30 287  
[IMG]sysw1.gif09-Nov-2016 10:30 270  
[IMG]ques2.gif09-Nov-2016 10:30 251  
[IMG]calor5.gif09-Nov-2016 10:30 239  
[IMG]nud.gif09-Nov-2016 10:30 238  
[IMG]cice3.gif09-Nov-2016 10:30 221  
[IMG]calor6.gif09-Nov-2016 10:30 220  
[IMG]ccof9.gif09-Nov-2016 10:30 215  
[IMG]calor4.gif09-Nov-2016 10:30 206  
[IMG]tamb.gif09-Nov-2016 10:30 199  
[IMG]temc.gif09-Nov-2016 10:30 195  
[IMG]temk.gif09-Nov-2016 10:30 187  
[IMG]temf.gif09-Nov-2016 10:30 177  
[IMG]calor7.gif09-Nov-2016 10:30 177  
[IMG]tskin.gif09-Nov-2016 10:30 173  
[IMG]hfus3.gif09-Nov-2016 10:30 167  
[IMG]pdelv.gif09-Nov-2016 10:30 165  
[IMG]m3.gif09-Nov-2016 10:30 165  
[IMG]deltaV.gif09-Nov-2016 10:30 160  

Apache/2.2.15 (CentOS) Server at hyperphysics.phy-astr.gsu.edu Port 80